Terminal Aerodrome Forecast
Issued by NWS Raleigh/Durham, NC

Home | Current Version | Previous Version | Text Only | Print | Product List | Glossary On
Versions: 1 2 3 4 5 6 7 8 9 10 11 12 13 14 15 16 17 18 19 20 21 22 23 24 25 26 27 28 29 30 31 32 33 34 35 36 37 38 39 40 41 42 43 44 45 46 47 48 49 50
000
FTUS42 KRAH 280522
TAFRDU
TAF
KRDU 280522Z 2806/0106 04006KT P6SM SCT015 SCT050
      TEMPO 2806/2809 BKN012
     FM281100 05008G15KT P6SM SCT020 BKN150
     FM282200 05007KT P6SM FEW020=

USA.gov is the U.S. government's official web portal to all federal, state and local government web resources and services.